www.pogodaiklimat.ru

Погода и климат >> Архив погоды >> Индонезия >> Банюванги


ПОГОДА в Банюванги

  • Прогноз погоды в Банюванги
  • Монитор погоды в Банюванги

АРХИВ ПОГОДЫ в Банюванги

Время (UTC), дата Ветер
(напр.,м/с)
 
Видим.   Явления Облачность Т
(С)
Тd
(С)
f
(%)
Тe
(С)
Тes
(С)
Комфортность P
(гПа)
Po
(гПа)
Тmin
(С)
Tmax
(С)
R
(мм)
R24
(мм)
S
(см)
03 18.06 Ю 2 10 км 4/3 600 м
[Sc As trans Ci fib]
+29.5 +20.6 59 +37 +46 очень
душно
1012.5 1007.5
06 18.06 ЮВ 2 10 км 3/3 600 м
[Sc Ci fib]
+28.8 +20.7 62 +36 +45 очень
душно
1010.7 1005.8
09 18.06 Ю 2 9000 м 5/3 570 м
[Sc Ac As Ci fib]
+27.6 +22.7 75 +37 +38 очень
душно
1009.9 1005.0
12 18.06 ЮЗ 2 8000 м 6/5 540 м
[Sc Ac trans Ci fib]
+26.1 +22.9 83 +35 +35 очень
душно
1011.3 1006.4 +30.1
15 18.06 ЮВ 1 8000 м 9/6 500 м
[Sc Ac trans Ci fib]
+25.7 +22.7 84 +34 +34 очень
душно
1012.1 1007.2
18 18.06 ЮЗ 3 8000 м 9/6 500 м
[Sc Ac trans Ci fib]
+24.5 +20.9 80 +31 +31 очень
душно
1011.9 1007.0
21 18.06 штиль 0 8000 м 9/6 500 м
[Sc Ac trans Ci fib]
+24.3 +20.9 81 +30 +30 очень
душно
1011.5 1006.6
00 19.06 ЮЗ 1 10 км 3/3 600 м
[Sc As trans Ci fib]
+24.8 +20.4 77 +31 +33 очень
душно
1012.8 1007.7 +22.6
03 19.06 ЮЗ 2 10 км 3/3 600 м
[Sc As trans Ci fib]
+29.6 +19.3 54 +35 +45 очень
душно
1012.0 1006.9
06 19.06 Ю 2 10 км 3/3 600 м
[Sc As trans Ci fib]
+29.5 +20.6 59 +37 +46 очень
душно
1010.0 1005.0
09 19.06 ЮВ 2 10 км 3/3 600 м
[Sc As trans Ci fib]
+27.7 +20.9 67 +35 +36 очень
душно
1009.5 1004.5
12 19.06 штиль 0 10 км 4/3 600 м
[Sc As trans Ci fib]
+25.5 +22.0 81 +33 +33 очень
душно
1011.1 1006.0 +30.0
15 19.06 СЗ 2 8000 м 4/3 600 м
[Sc Ac trans Ci fib]
+24.0 +20.9 83 +30 +30 очень
душно
1011.6 1006.5
18 19.06 З 2 7000 м 5/4 600 м
[Sc As op Ci fib]
+23.3 +20.9 86 +31 +31 очень
душно
1011.7 1006.3
21 19.06 СЗ 3 7000 м 5/4 600 м
[Sc As op Ci fib]
+23.1 +19.1 78 +29 +29 очень
душно
1011.3 1006.3
00 20.06 штиль 0 9000 м 8/5 600 м
[Sc Ac trans Ci fib]
+22.8 +18.3 76 +28 +30 душно 1012.9 1007.9 +22.0
03 20.06 Ю 4 10 км 5/4 570 м
[Sc Ci fib]
+27.7 +20.1 63 +34 +39 очень
душно
1013.0 1008.1
06 20.06 Ю 2 10 км 4/3 570 м
[Sc Ac trans Ci fib]
+29.1 +18.9 54 +34 +43 очень
душно
1010.8 1005.9
09 20.06 Ю 2 10 км 4/3 570 м
[Sc Ac trans Ci fib]
+27.2 +22.3 75 +36 +37 очень
душно
1009.9 1005.0
12 20.06 ЮЗ 3 10 км 9/6 570 м
[Sc Ac trans Ci fib]
+25.8 +22.8 84 +34 +34 очень
душно
1011.0 1006.0 +29.2
15 20.06 ЮЗ 2 10 км 5/4 570 м
[Sc Ac trans Ci fib]
+25.0 +21.6 81 +32 +32 очень
душно
1011.6 1006.7
18 20.06 СЗ 2 9000 м 5/5 570 м
[Sc Ac trans Ci fib]
+24.3 +21.2 83 +31 +31 очень
душно
1010.6 1005.7
21 20.06 штиль 0 9000 м 9/8 570 м
[Sc Ac trans Ci fib]
+23.6 +19.0 75 +28 +28 душно 1010.7 1005.8
00 21.06 штиль 0 10 км 5/3 570 м
[Cu med, cong As op Ci fib]
+24.2 +20.1 78 +30 +32 очень
душно
1011.9 1007.0 +22.0
03 21.06 Ю 3 10 км 4/3 570 м
[Sc Ac trans Ci fib]
+28.0 +20.9 65 +35 +42 очень
душно
1010.9 1006.0
06 21.06 ЮЗ 2 10 км 3/3 570 м
[Sc Ci fib]
+30.1 +20.8 58 +37 +47 очень
душно
1008.8 1003.6
09 21.06 З 2 9000 м 8/6 570 м
[Sc Ac trans Ci fib]
+27.2 +21.6 71 +35 +35 очень
душно
1008.6 1003.3
12 21.06 ЮЗ 2 8000 м 9/6 540 м
[Sc Ac trans Ci fib]
+26.2 +22.1 78 +34 +34 очень
душно
1010.5 1005.6 +30.9
15 21.06 Ю 1 8000 м 9/6 540 м
[Sc Ac trans Ci fib]
+24.9 +21.8 83 +32 +32 очень
душно
1011.4 1006.5
18 21.06 З 2 8000 м 9/6 540 м
[Sc Ac trans Ci fib]
+24.3 +21.2 83 +31 +31 очень
душно
1011.3 1006.4
21 21.06 штиль 0 8000 м 9/6 540 м
[Sc Ac trans Ci fib]
+22.2 +19.5 85 +28 +28 душно 1009.6 1004.6
00 22.06 штиль 0 10 км 5/3 570 м
[Cu hum As trans Ci fib]
+26.1 +20.7 72 +33 +34 очень
душно
1010.9 1005.8 +21.6
03 22.06 З 2 10 км 5/3 570 м
[Cu hum As trans Ci fib]
+28.7 +20.4 61 +35 +44 очень
душно
1010.2 1005.4
06 22.06 ЮВ 6 10 км 5/3 570 м
[Sc As op Ci fib]
+28.5 +21.8 67 +37 +40 очень
душно
1008.6 1003.8
09 22.06 Ю 2 9000 м 8/5 570 м
[Sc As op Ci fib]
+27.4 +22.6 75 +36 +37 очень
душно
1008.6 1003.7
12 22.06 штиль 0 9000 м 8/5 570 м
[Sc Ac As Ci fib]
+26.3 +23.0 82 +35 +35 очень
душно
1009.7 1004.6 +29.4
15 22.06 штиль 0 8000 м 8/5 570 м
[Sc Ac As Ci fib]
+26.1 +23.5 86 +35 +35 очень
душно
1010.4 1005.2
18 22.06 штиль 0 8000 м 8/5 570 м
[Sc Ac As Ci fib]
+24.2 +21.4 84 +31 +31 очень
душно
1009.9 1004.9
21 22.06 штиль 0 8000 м 8/5 570 м
[Sc Ac As Ci fib]
+22.8 +19.1 80 +29 +29 очень
душно
1010.0 1004.9
00 23.06 З 2 9000 м 6/3 570 м
[Sc As trans Ci fib]
+23.7 +20.1 80 +29 +30 душно 1012.0 1007.1 +22.0
03 23.06 Ю 3 9000 м 6/3 570 м
[Sc As trans Ci fib]
+27.4 +22.0 72 +35 +42 очень
душно
1012.5 1007.6
06 23.06 ЮВ 4 9000 м 4/1 600 м
[Cu hum Ci fib]
+29.0 +21.9 66 +37 +45 очень
душно
1010.0 1005.2
09 23.06 Ю 2 9000 м 4/3 600 м
[Cu med, cong Ci fib]
+27.3 +22.5 75 +36 +37 очень
душно
1009.7 1004.3
12 23.06 ЮЗ 2 9000 м 6/4 570 м
[Sc As trans Ci fib]
+25.8 +22.5 82 +34 +34 очень
душно
1011.2 1006.2 +29.9
15 23.06 З 2 9000 м 3/1 600 м
[Sc As trans Ci fib]
+24.0 +20.6 81 +30 +30 очень
душно
1012.1 1007.2
18 23.06 З 2 9000 м 3/1 600 м
[Sc As trans Ci fib]
+23.0 +19.7 82 +30 +30 очень
душно
1011.8 1006.9
21 23.06 З 2 9000 м 3/1 600 м
[Sc As trans Ci fib]
+22.5 +19.3 82 +28 +28 душно 1011.8 1006.8
00 24.06 З 2 10 км 3/1 600 м
[Cu hum Ci sp]
+24.0 +20.3 80 +30 +32 очень
душно
1013.4 1008.4 +21.8
03 24.06 Ю 3 10 км 3/1 600 м
[Cu hum Ci sp]
+28.7 +20.7 62 +36 +46 очень
душно
1012.9 1008.0
06 24.06 ЮВ 2 10 км 3/1 600 м
[Cu hum Ci fib]
+29.6 +20.6 58 +36 +48 очень
душно
1010.7 1005.7
09 24.06 Ю 2 10 км 5/3 600 м
[Cu med, cong Ac trans Ci fib]
+27.8 +22.0 71 +36 +37 очень
душно
1010.6 1005.6
12 24.06 З 2 8000 м 8/5 570 м
[Sc Ac trans Ci fib]
+26.3 +22.9 82 +35 +35 очень
душно
1012.8 1007.5 +29.8
15 24.06 штиль 0 7000 м 9/6 570 м
[Sc Ac trans Ci fib]
+24.9 +21.5 81 +32 +32 очень
душно
1013.3 1008.0
18 24.06 штиль 0 7000 м 8/5 570 м
[Sc Ac trans Ci fib]
+24.0 +20.1 79 +30 +30 очень
душно
1012.7 1007.4
21 24.06 З 2 7000 м 5/3 570 м
[Sc Ac trans Ci fib]
+23.6 +20.5 83 +29 +29 душно 1012.9 1007.6
00 25.06 З 2 9000 м 8/3 600 м
[Cu hum As op Ci fib]
+24.6 +21.2 81 +31 +32 очень
душно
1014.1 1009.1 +22.4

 

Местоположение метеостанции Банюванги (Индонезия): широта -8.22 долгота 114.38 высота над уровнем моря 5 м.

В архиве по умолчанию представлена погода в Банюванги за последнюю неделю. Архивные данные за месяц целиком и за предыдущие месяцы, начиная с января 2011 года, Вы можете получить, выбрав интересующий диапазон дат из раскрывающегося списка и нажав кнопку "Ввод!".


*Определитесь, кто Вы:
робот инопланетянин человек

Внимание! Время в таблицах - всемирное. Для получения местного времени необходимо прибавить поправку, которая равна 7 ч.

Смотрите также архив погоды в соседних городах и на ближайших метеорологических станциях:

Погода в Денпасаре (Индонезия) (104 км)
Погода в Сурабая Геданган (Индонезия) (134 км)
Погода в Калиянджете (Индонезия) (138 км)
Погода в Матараме (Индонезия) (188 км)
Погода в Аэропорту Джуанда (Индонезия) (202 км)
Погода в Сурабая Перак (Индонезия) (215 км)
Погода в Сангкапуре (Индонезия) (327 км)
Погода в Сумбава-Бесаре (Индонезия) (335 км)
Погода в Семаранге (Индонезия) (459 км)
Погода в Аэропорту Ахмад Яни (Индонезия) (462 км)

Пояснения к столбцам:

Ветер - указаны скорость ветра в м/с - средняя за 10 мин, порывы в срок и между сроками (в фигурных скобках) и направление, откуда дует ветер: С - северный, СВ - северо-восточный, В - восточный, ЮВ - юго-восточный, Ю - южный, ЮЗ - юго-западный, З - западный, СЗ - северо-западный.
Видимость - горизонтальная дальность видимости в метрах или километрах. При видимости от 1 до 10 км при отсутствии осадков обычно наблюдается дымка, при ухудшении видимости до 1 км и менее - туман. В сухую погоду видимость может ухудшаться дымом, пылью или мглою.
Явления - указаны атмосферные явления, наблюдавшиеся в срок или в последний час перед сроком; фигурными скобками обозначены явления, наблюдавшиеся между сроками (за 1-3 часа до срока); квадратными скобками обозначены град или гололедные отложения с указанием их диаметра в мм.
Облачность - указаны через наклонную черту общая и нижняя облачность в баллах и высота нижней границы облаков в метрах; квадратными скобками обозначены формы облаков: Ci - перистые, Cs - перисто-слоистые, Cc - перисто-кучевые, Ac - высококучевые, As - высокослоистые, Sc - слоисто-кучевые, Ns - слоисто-дождевые, Cu - кучевые, Cb - кучево-дождевые. Подробнее классификацию облаков см. в Атласе облаков (PDF).
T - Температура воздуха - температура, измеренная на высоте 2 м над землей.
Td - Температура точки росы - температура, при понижении до которой содержащийся в воздухе водяной пар достигнет насыщения.
f - Относительная влажность воздуха - влажноcть воздуха, измеренная на высоте 2 м над землей.
Te - Эффективная температура - температура, которую ощущает одетый по сезону человек в тени. Характеристика душности погоды. При расчете учитывается влияние влажности воздуха и скорости ветра на теплоощущения человека.
Tes - Эффективная температура на солнце - температура, которую ощущает человек, с поправкой на солнечный нагрев. Характеристика знойности погоды. Зависит от высоты солнца над горизонтом, облачности и скорости ветра. Ночью, в пасмурную погоду, а также при ветре 12 м/с и более поправка равна нулю.
P - Атмосферное давление - приведенное к уровню моря атмосферное давление.
Po - Атмосферное давление - измеренное на уровне метеостанции атмосферное давление.
Tmin - Минимальная температура - минимум температуры воздуха на высоте 2 м над землей.
Tmax - Максимальная температура - максимум температуры воздуха на высоте 2 м над землей.
R - Количество осадков - Количество выпавших осадков за период времени, мм. При наведении курсора мыши на число - период времени, за который выпало указанное количество осадков.
R24 - Количество осадков - Количество выпавших осадков за 24 часа, мм.
S - Снежный покров - Высота снежного покрова, см. При наведении курсора мыши на число - состояние снежного покрова и степень покрытия местности в баллах.